Главная страница
METAR-TAF:

METAR-TAF

Аэропорты :

Wings Field

Филадельфия / Blue Bell, Пенсильвания, США

широта: 40-08-15N, долгота: 075-15-54W, высота над уровнем моря: 92 м

Текущие метеонаблюдения

Эта сводка был подготовлена 24 минут назад, в 15:55 UTC
Ветер 4 Узел от западный-юго-западный
Температура 0°C
Влажность 80%
Давление 1021 hPa
Видимость: 16.1 км
Сплошная облачность на высоте 2900 фута

METAR: KLOM 161555Z AUTO 24004KT 10SM OVC029 00/M03 A3014 RMK AO1

Время: 11:19 (16:19 UTC)


TAF: отсутствует

Метеонаблюдения и прогнозы для более 4000 аэропортов (сводки METAR и TAF).

Имеющиеся станции представлены на карте желтыми и красными точками.

Чтобы увидеть название станции, наведите на нее мышь.

Затем щелкните, чтобы увидеть метеонаблюдения и метеопрогнозы.

Управление картой: чтобы увеличить масштаб, щелкните зеленые кнопки с черным крестиком; чтобы уменьшить масштаб, щелкните зеленую кнопку с тире; для просмотра соседних карт щелкайте зеленые стрелки.


METAR-TAF: